Weather History for Meadow Lake, CO

Change the Weather History Date:

Tuesday, September 11, 2012

  Actual Average (KCOS) Record (KCOS)
Temperature  
Mean Temperature 68 °F 63 °F  
Max Temperature 83 °F 77 °F 89 °F (1895)
Min Temperature 55 °F 49 °F 30 °F (1898)
Degree Days  
Heating Degree Days 0 4  
Month to date heating degree days 29  
Since 1 July heating degree days 60  
Cooling Degree Days 4 2  
Month to date cooling degree days 24  
Year to date cooling degree days 442  
Growing Degree Days 18 (Base 50)    
Moisture  
Dew Point 33 °F    
Average Humidity 27    
Maximum Humidity 66    
Minimum Humidity 13    
Precipitation  
Precipitation 0.00 in 0.05 in 4.29 in (2008)
Month to date precipitation 0.60  
Year to date precipitation 14.39  
Snow  
Snow 0.00 in 0.00 in 0.00 in (2002)
Month to date snowfall 0.0  
Since 1 July snowfall 0.0  
Since 1 September snowfall 0.0  
Snow Depth -    
Sea Level Pressure  
Sea Level Pressure 30.10 in    
Wind  
Wind Speed 11 mph (NNW)    
Max Wind Speed 21 mph    
Max Gust Speed 33 mph    
Visibility 10 miles    
Events Rain    
T = Trace of Precipitation, MM = Missing Value Source: NWS Daily Summary

Daily Weather History Graph

Daily Weather History Graph

Search for Another Location

Airport:

Trip Planner

Search our weather history database for the weather conditions in past years. The results will help you decide how hot, cold, wet, or windy it might be!

Date:

Astronomy

Sep. 11, 2012 Rise Set
Actual Time 6:36 AM MDT 7:12 PM MDT
Civil Twilight 6:09 AM MDT 7:38 PM MDT
Nautical Twilight 5:37 AM MDT 8:10 PM MDT
Astronomical Twilight 5:05 AM MDT 8:42 PM MDT
Moon 1:58 AM MDT (9/11) 4:22 PM MDT (9/11)
Length of Visible Light 13h 29m
Length of Day
12h 35m
Waning Crescent, 21% of the Moon is Illuminated
Sep 11
Waning Crescent
Sep 15
New
Sep 22
First Quarter
Sep 29
Full
Oct 8
Last Quarter

Hourly Weather History & Observations

Time (MDT) Temp. Dew Point Humidity Pressure Visibility Wind Dir Wind Speed Gust Speed Precip Events Conditions
12:13 AM 59.4 °F 26.4 °F 28% 30.12 in 10.0 mi West 11.5 mph - N/A   Clear
12:33 AM 57.6 °F 27.3 °F 31% 30.12 in 10.0 mi WNW 9.2 mph - N/A   Clear
12:53 AM 57.7 °F 28.2 °F 32% 30.12 in 10.0 mi West 11.5 mph - N/A   Clear
1:13 AM 56.3 °F 28.6 °F 35% 30.12 in 10.0 mi WNW 9.2 mph - N/A   Clear
1:33 AM 55.2 °F 28.6 °F 36% 30.11 in 10.0 mi NNW 8.1 mph - N/A   Clear
1:53 AM 56.7 °F 28.8 °F 34% 30.10 in 10.0 mi NNW 8.1 mph - N/A   Clear
2:13 AM 57.6 °F 28.8 °F 33% 30.10 in 10.0 mi NNW 8.1 mph - N/A   Scattered Clouds
2:33 AM 58.1 °F 29.1 °F 33% 30.10 in 10.0 mi WNW 9.2 mph - N/A   Scattered Clouds
2:53 AM 58.3 °F 29.3 °F 33% 30.10 in 10.0 mi NW 9.2 mph - N/A   Clear
3:13 AM 59.9 °F 28.9 °F 31% 30.09 in 10.0 mi NW 8.1 mph - N/A   Clear
3:33 AM 59.0 °F 28.4 °F 31% 30.09 in 10.0 mi WNW 9.2 mph - N/A   Clear
3:53 AM 59.2 °F 28.4 °F 31% 30.09 in 10.0 mi NW 9.2 mph - N/A   Clear
4:13 AM 61.2 °F 28.2 °F 29% 30.09 in 10.0 mi NW 10.4 mph - N/A   Clear
4:33 AM 64.0 °F 27.3 °F 25% 30.09 in 10.0 mi NW 13.8 mph 19.6 mph N/A   Clear
4:53 AM 67.5 °F 27.5 °F 22% 30.09 in 10.0 mi NW 13.8 mph 19.6 mph N/A   Clear
5:13 AM 68.0 °F 27.7 °F 22% 30.09 in 10.0 mi NNW 12.7 mph - N/A   Clear
5:33 AM 68.0 °F 29.5 °F 24% 30.09 in 10.0 mi NW 16.1 mph 21.9 mph N/A   Clear
5:53 AM 68.0 °F 31.6 °F 26% 30.09 in 10.0 mi NW 16.1 mph 25.3 mph N/A   Clear
6:13 AM 67.6 °F 32.0 °F 27% 30.10 in 10.0 mi NW 16.1 mph 24.2 mph N/A   Clear
6:33 AM 68.0 °F 32.9 °F 27% 30.10 in 10.0 mi NW 18.4 mph 24.2 mph N/A   Clear
6:53 AM 68.2 °F 32.9 °F 27% 30.10 in 10.0 mi NNW 13.8 mph 24.2 mph N/A   Clear
7:13 AM 68.2 °F 33.6 °F 28% 30.10 in 10.0 mi North 17.3 mph 24.2 mph N/A   Clear
7:33 AM 68.5 °F 34.0 °F 28% 30.11 in 10.0 mi North 17.3 mph 23.0 mph N/A   Clear
7:53 AM 69.6 °F 33.8 °F 27% 30.11 in 10.0 mi North 15.0 mph 23.0 mph N/A   Clear
8:13 AM 70.7 °F 34.2 °F 26% 30.11 in 10.0 mi North 12.7 mph 23.0 mph N/A   Clear
8:33 AM 71.6 °F 35.2 °F 26% 30.11 in 10.0 mi North 13.8 mph 23.0 mph N/A   Clear
8:53 AM 72.0 °F 35.2 °F 26% 30.12 in 10.0 mi North 13.8 mph 26.5 mph N/A   Clear
9:13 AM 72.7 °F 35.1 °F 25% 30.12 in 10.0 mi North 16.1 mph 31.1 mph N/A   Clear
9:33 AM 74.7 °F 34.7 °F 23% 30.13 in 10.0 mi North 11.5 mph 28.8 mph N/A   Clear
9:53 AM 76.3 °F 34.7 °F 22% 30.13 in 10.0 mi NNE 20.7 mph 28.8 mph N/A   Clear
10:13 AM 76.3 °F 34.2 °F 22% 30.14 in 10.0 mi NNE 17.3 mph 29.9 mph N/A   Clear
10:33 AM 77.4 °F 33.8 °F 21% 30.14 in 10.0 mi NNE 13.8 mph 27.6 mph N/A   Clear
10:53 AM 79.3 °F 32.9 °F 19% 30.14 in 10.0 mi North 11.5 mph 25.3 mph N/A   Clear
11:12 AM 79.9 °F 32.0 °F 18% 30.14 in 10.0 mi North 9.2 mph 21.9 mph N/A   Clear
11:33 AM 80.6 °F 32.4 °F 17% 30.13 in 10.0 mi NNE 10.4 mph 18.4 mph N/A   Clear
11:53 AM 82.4 °F 32.5 °F 17% 30.13 in 10.0 mi NE 10.4 mph 16.1 mph N/A   Clear
12:12 PM 78.8 °F 32.2 °F 18% 30.12 in 10.0 mi ENE 11.5 mph - N/A   Clear
12:33 PM 79.9 °F 31.3 °F 17% 30.12 in 10.0 mi East 9.2 mph - N/A   Clear
12:53 PM 80.1 °F 31.8 °F 17% 30.12 in 10.0 mi ENE 5.8 mph - N/A   Scattered Clouds
1:13 PM 79.2 °F 30.4 °F 17% 30.11 in 10.0 mi East 4.6 mph - N/A   Mostly Cloudy
1:32 PM 78.8 °F 29.8 °F 17% 30.11 in 10.0 mi ENE 5.8 mph 17.3 mph N/A   Mostly Cloudy
1:52 PM 77.9 °F 29.8 °F 17% 30.10 in 10.0 mi Calm Calm - N/A   Overcast
2:13 PM 79.9 °F 29.5 °F 16% 30.08 in 10.0 mi East 3.5 mph - N/A   Overcast
2:33 PM 79.9 °F 28.4 °F 15% 30.08 in 10.0 mi ESE 5.8 mph - N/A   Overcast
2:53 PM 80.8 °F 28.4 °F 15% 30.07 in 10.0 mi South 8.1 mph 16.1 mph N/A   Overcast
3:13 PM 80.6 °F 28.2 °F 15% 30.06 in 10.0 mi Calm Calm - N/A   Overcast
3:33 PM 80.2 °F 28.0 °F 15% 30.06 in 10.0 mi SSE 4.6 mph - N/A   Overcast
3:53 PM 80.2 °F 26.8 °F 14% 30.06 in 10.0 mi SE 6.9 mph - N/A   Overcast
4:13 PM 80.4 °F 27.1 °F 14% 30.06 in 10.0 mi SSE 8.1 mph - N/A   Overcast
4:33 PM 80.4 °F 27.3 °F 14% 30.06 in 10.0 mi Calm Calm - N/A   Scattered Clouds
4:53 PM 82.9 °F 27.7 °F 13% 30.06 in 10.0 mi South 5.8 mph 16.1 mph N/A   Scattered Clouds
5:13 PM 80.8 °F 27.1 °F 14% 30.06 in 10.0 mi Calm Calm - N/A   Scattered Clouds
5:33 PM 79.5 °F 27.1 °F 15% 30.05 in 10.0 mi SSE 3.5 mph - N/A   Clear
5:53 PM 78.4 °F 27.3 °F 15% 30.06 in 10.0 mi SW 4.6 mph - N/A   Mostly Cloudy
6:13 PM 77.0 °F 29.5 °F 17% 30.06 in 10.0 mi West 4.6 mph - N/A   Overcast
6:33 PM 75.7 °F 30.2 °F 19% 30.06 in 10.0 mi ESE 3.5 mph - N/A   Overcast
6:53 PM 75.7 °F 30.9 °F 19% 30.06 in 10.0 mi SSE 5.8 mph - N/A   Overcast
7:13 PM 73.8 °F 36.9 °F 26% 30.07 in 10.0 mi South 13.8 mph 20.7 mph N/A   Overcast
7:33 PM 72.7 °F 36.0 °F 26% 30.08 in 10.0 mi NNW 6.9 mph 17.3 mph N/A   Mostly Cloudy
7:53 PM 71.2 °F 36.1 °F 28% 30.09 in 10.0 mi NW 9.2 mph - N/A   Overcast
8:13 PM 71.4 °F 36.0 °F 27% 30.10 in 10.0 mi North 13.8 mph 18.4 mph N/A   Overcast
8:33 PM 70.7 °F 37.4 °F 30% 30.11 in 10.0 mi NW 12.7 mph 19.6 mph N/A   Overcast
8:53 PM 70.7 °F 38.3 °F 31% 30.11 in 10.0 mi NW 16.1 mph 21.9 mph N/A   Overcast
9:13 PM 69.6 °F 39.7 °F 34% 30.12 in 10.0 mi NW 18.4 mph 27.6 mph N/A   Overcast
9:33 PM 68.7 °F 41.2 °F 37% 30.12 in 10.0 mi North 20.7 mph 29.9 mph N/A   Overcast
9:53 PM 65.8 °F 44.1 °F 45% 30.13 in 10.0 mi North 20.7 mph 33.4 mph N/A   Overcast
10:33 PM 61.3 °F 47.7 °F 61% 30.17 in 10.0 mi North 20.7 mph 31.1 mph N/A   Overcast
10:53 PM 61.0 °F 47.7 °F 62% 30.17 in 10.0 mi North 19.6 mph 28.8 mph N/A   Overcast
11:13 PM 60.1 °F 48.4 °F 65% 30.17 in 10.0 mi North 16.1 mph 25.3 mph N/A Rain Light Rain
11:33 PM 59.7 °F 48.4 °F 66% 30.16 in 10.0 mi North 18.4 mph 26.5 mph N/A   Overcast
11:53 PM 59.5 °F 48.2 °F 66% 30.15 in 10.0 mi North 18.4 mph 26.5 mph N/A   Overcast